Skip Page Navigation
NASA JPL Caltech
NASA Logo - Jet Propulsion Laboratory + View the NASA Portal
+ Center for Near-Earth Object Studies
JPL Home Earth Solar System Stars & Galaxies Technology
JPL Solar System Dynamics
BODIES ORBITS EPHEMERIDES TOOLS PHYSICAL DATA DISCOVERY FAQ SITE MAP
JPL Small-Body Database Browser
Search: [ help ]  
243016 (2006 UE172)
Classification: Main-belt Asteroid          SPK-ID: 2243016
Ephemeris | Orbit Diagram | Orbital Elements | Mission Design | Physical Parameters | Discovery Circumstances | Close-Approach Data ]

[ show orbit diagram ]
Orbital Elements at Epoch 2459000.5 (2020-May-31.0) TDB
Reference: JPL 12 (heliocentric ecliptic J2000)
 Element Value Uncertainty (1-sigma)   Units 
e .0939031219555744 5.7545e-08  
a 3.136970482981518 3.2859e-08 au
q 2.842399161147067 1.7472e-07 au
i 6.716478674337735 6.3373e-06 deg
node 105.9550802659501 5.468e-05 deg
peri 7.44300849052517 6.4395e-05 deg
M 149.6759270469952 3.4915e-05 deg
tp 2458156.750494686927
(2018-Feb-07.25049469)
0.00019308 TDB
period 2029.383267606787
5.56
3.1886e-05
8.73e-08
d
yr
n .1773937953201621 2.7872e-09 deg/d
Q 3.431541804815968 3.5945e-08 au
  Orbit Determination Parameters
   # obs. used (total)      230  
   data-arc span      6719 days (18.40 yr)  
   first obs. used      2000-12-29  
   last obs. used      2019-05-23  
   planetary ephem.      DE431  
   SB-pert. ephem.      SB431-N16  
   condition code      0  
   norm. resid. RMS      .60747  
   source      ORB  
   producer      Otto Matic  
   solution date      2020-Feb-25 09:15:44  

Additional Information
 Earth MOID = 1.85911 au 
 Jupiter MOID = 1.66534 au 
 T_jup = 3.194 
[ show covariance matrix ]

Ephemeris | Orbit Diagram | Orbital Elements | Mission Design | Physical Parameters | Discovery Circumstances | Close-Approach Data ]

Physical Parameter Table
Parameter Symbol Value Units Sigma Reference Notes
absolute magnitude H 16.0   n/a MPO433592  
diameter diameter 4.591 km 1.382 urn:nasa:pds:neowise_diameters_albedos::2.0[mainbelt] (http://adsabs.harvard.edu/abs/2011ApJ...741...68M)  
geometric albedo albedo 0.028   0.022 urn:nasa:pds:neowise_diameters_albedos::2.0[mainbelt] (http://adsabs.harvard.edu/abs/2011ApJ...741...68M)  

243016 (2006 UE172)          Discovered 2006-Oct-21 by Mt. Lemmon Survey at Mount Lemmon
Reference: 20100626/Numbers.arcLast Updated: 2010-06-28

[ show close-approach data ]
Ephemeris | Orbit Diagram | Orbital Elements | Mission Design | Physical Parameters | Discovery Circumstances | Close-Approach Data ]
ABOUT SSD CREDITS/AWARDS PRIVACY/COPYRIGHT GLOSSARY LINKS
FirstGov 2020-Aug-13 03:44 UT
(server date/time)  
NASA Home Page
Site Manager:   Ryan S. Park
Webmaster  Alan B. Chamberlin